Weather in Kumluca

Turkey     36°22′00″N   30°17′08″E
temp.,
°C
wind,
m/s
gust,
m/s
humid.,
%
clouds,
%
prec.,
mm/h
press.,
hPa
HPBL,
m
8 august, mon
mon800:00+27w00750 0.0 1004300
03:00+26sw11780 0.0 1004322
06:00+26wsw11780 0.0 1004309
09:00+27s21750 0.0 1005372
12:00+27s54770 0.0 1006378
15:00+27ssw44721 0.0 1005411
18:00+28sw45710 0.0 1005444
21:00+27wsw22760 0.0 1006466
9 august, tue
tue900:00+27ene11750 0.0 1006444
03:00+27n10775 0.0 1005367
06:00+26nne22820 0.0 1005218
09:00+27ene00710 0.0 1006231
12:00+27ssw44807 0.0 1006329
15:00+28sw65771 0.1 1006397
18:00+28sw77730 0.0 1004440
21:00+28wsw22730 0.1 1005409
10 august, wed
wed1000:00+27nne22757 0.2 1005556
03:00+27ene22790 0.2 1004331
06:00+26ne11800 0.0 1004257
09:00+27se10770 0.0 1004267
12:00+28s44783 0.0 1005386
15:00+28ssw54782 0.1 1004437
18:00+28sw55740 0.0 1003358
21:00+28wsw11700 0.1 1004466
11 august, thu
thu1100:00+27ne11740 0.0 1004262
03:00+27ne10770 0.1 1003213
06:00+27nnw01740 0.1 1003189
09:00+28s11680 0.1 1004313
12:00+28ssw54760 0.0 1005359
15:00+28ssw54772 0.0 1005359
18:00+28sw55740 0.1 1004340
21:00+28wsw22730 0.2 1005311
12 august, fri
fri1200:00+27wnw00730 0.0 1005221
03:00+27nne00740 0.0 1005246
06:00+27ese01740 0.0 1004186
09:00+28sse21710 0.0 1005226
12:00+28ssw44730 0.0 1006313
15:00+29ssw54690 0.0 1005364
18:00+29sw55700 0.0 1005336
21:00+29sw22700 0.0 1005239